{"data":{"norad_id":53158,"epoch":"2026-09-20T00:08:39.562080Z","epoch_age_seconds":114900,"freshness":"FRESH","line1":"1 53158U 22083AC  26263.00601345  .00001049  00000+0  40973-4 0  9995","line2":"2 53158  53.1606 358.4885 0001094  77.3974 282.7151 15.35403512230872","mean_motion":15.35403512,"eccentricity":0.0001094,"inclination_deg":53.1606,"raan_deg":358.4885,"arg_perigee_deg":77.3974,"mean_anomaly_deg":282.7151,"bstar":4.0973e-5,"rev_number":23087,"period_min":93.786420881913,"perigee_km":458.97415388701,"apogee_km":460.4702774834,"semimajor_km":6837.8592156852,"source":"CELESTRAK","updated_at":"2026-09-20T09:00:40.183014Z"}}